ONEWEB-0286 (49076 NORAD) Tracking and Keplerian Element Data

This shows tracking and keplerian element data for the satellite.

Feedback or suggestion? Click here.




ElementValue
Catalog49076
NameONEWEB-0286
Epoch Orbit355
Epoch Day300.58334491
Epoch Year2021
RAAN342.7502
Inclination87.2014
Eccentricity0.0022608
Argument of Perigee66.8906
Mean Anonmoly344.0943
Mean Motion14.84505706
Decay Rate0.00033253
L11 49076U 21075B 21300.58334491 .00033253 00000-0 39124-2 0 9991
L22 49076 87.2014 342.7502 0022608 66.8906 344.0943 14.84505706 3556

Live tracking and technical data element details for ONEWEB-0286 (NORAD 49076). ONEWEB-0286 can be tracked NOW for your location showing map with azimuth and elevation plus other details from your city location.

Track the satellite on the map from your city or location and see movement details for azimuth, elevation, latitude, longitude, range, height, and movement on the map or in text.







IsCatalogInMostPopularTable: catalog: 49076, numindb: 12
Update: records affected: 1



GetName: 49076 ONEWEB-0286

Hit Count: updated at: Thu, 28 Oct 2021 12:10:46 GMT